Location: Unspecified
(0.0000°N, 0.0000°E)
Time: 00:52:23
(UTC+00:00)

RS-15 - Pass Details

Date: 19 February 2026
Orbit: 1894 x 2150 km, 64.8° (Epoch: 7 March)

Event Time Altitude Azimuth Distance (km) Brightness Sun altitude
Rises 22:44:53 0° 203° (SSW) 5,392 10.6 -65.3°
Reaches altitude 10° 22:48:13 10° 204° (SSW) 4,364 10.0 -66.1°
Enters shadow 22:48:53 12° 204° (SSW) 4,159 9.9 -66.2°
